Platteville, WI

7:00 AM CST on December 16, 2019 (GMT -0600)
Platteville Municipal

Weather History for KPVB - November, 2019

Change the Weather History Date:

Tuesday, November 12, 2019

  Actual Average (WUND) Record (WUND)
Temperature  
Mean Temperature 8 °F -  
Max Temperature 15 °F - - (-1)
Min Temperature 0 °F - - (-1)
Degree Days  
Heating Degree Days 58    
Moisture  
Dew Point 0 °F    
Average Humidity 68    
Maximum Humidity 85    
Minimum Humidity 50    
Precipitation  
Precipitation 0.00 in - - ()
Sea Level Pressure  
Sea Level Pressure 30.43 in    
Wind  
Wind Speed 7 mph ()    
Max Wind Speed 15 mph    
Max Gust Speed 21 mph    
Visibility 10.0 miles    
Events      
Averages and records for this station are not official NWS values.
T = Trace of Precipitation, MM = Missing Value Source: Averaged Metar Reports

Daily Weather History Graph

Daily Weather History Graph

Search for Another Location

Airport or City:

Astronomy

Nov. 12, 2019 Rise Set
Actual Time 6:49 AM CST 4:41 PM CST
Civil Twilight 6:19 AM CST 5:12 PM CST
Nautical Twilight 5:45 AM CST 5:46 PM CST
Astronomical Twilight 5:11 AM CST 6:19 PM CST
Moon 5:09 PM CST (11/12) 6:39 AM CST (11/12)
Length of Visible Light 10h 52m
Length of Day
9h 52m
Full, 100% of the Moon is Illuminated
Nov 12
Full
Nov 19
Last Quarter
Nov 26
New
Dec 4
First Quarter
Dec 11
Full

Hourly Weather History & Observations

Time (CST) Temp. Windchill Dew Point Humidity Pressure Visibility Wind Dir Wind Speed Gust Speed Precip Events Conditions
12:15 AM 8.6 °F -7.0 °F -0.4 °F 67% 30.49 in 10.0 mi NW 12.7 mph - N/A   Clear
12:35 AM 9.1 °F -4.9 °F -0.4 °F 65% 30.49 in 10.0 mi NNW 10.4 mph - N/A   Clear
12:55 AM 7.7 °F -6.6 °F -0.8 °F 68% 30.49 in 10.0 mi NW 10.4 mph - N/A   Clear
1:15 AM 8.2 °F -5.1 °F -0.6 °F 67% 30.50 in 10.0 mi NW 9.2 mph - N/A   Clear
1:35 AM 6.6 °F -5.0 °F -1.3 °F 70% 30.50 in 10.0 mi NW 6.9 mph - N/A   Clear
1:55 AM 6.6 °F -7.1 °F -1.3 °F 70% 30.50 in 10.0 mi NW 9.2 mph - N/A   Clear
2:15 AM 5.7 °F -7.2 °F -1.8 °F 71% 30.51 in 10.0 mi NW 8.1 mph - N/A   Clear
2:35 AM 5.5 °F -8.4 °F -2.0 °F 71% 30.51 in 10.0 mi NW 9.2 mph - N/A   Clear
2:55 AM 5.0 °F -6.9 °F -2.4 °F 72% 30.51 in 10.0 mi NW 6.9 mph - N/A   Clear
3:15 AM 4.5 °F -9.8 °F -2.7 °F 72% 30.50 in 10.0 mi NW 9.2 mph - N/A   Clear
3:35 AM 5.0 °F -8.1 °F -2.4 °F 72% 30.50 in 10.0 mi NW 8.1 mph - N/A   Clear
4:15 AM 5.0 °F -8.1 °F -2.9 °F 70% 30.50 in 10.0 mi NW 8.1 mph - N/A   Clear
4:35 AM 4.1 °F -9.2 °F -3.5 °F 71% 30.50 in 10.0 mi NW 8.1 mph - N/A   Clear
4:55 AM 3.9 °F -9.4 °F -3.8 °F 70% 30.51 in 10.0 mi NW 8.1 mph - N/A   Clear
5:15 AM 1.9 °F -9.2 °F -4.9 °F 73% 30.52 in 10.0 mi WNW 5.8 mph - N/A   Clear
5:35 AM 2.3 °F -10.2 °F -3.3 °F 77% 30.52 in 10.0 mi WNW 6.9 mph - N/A   Clear
5:55 AM 0.9 °F -11.9 °F -3.8 °F 81% 30.52 in 10.0 mi WNW 6.9 mph - N/A   Clear
6:15 AM 0.3 °F -12.6 °F -3.8 °F 83% 30.52 in 10.0 mi WNW 6.9 mph - N/A   Clear
6:35 AM 0.5 °F -11.0 °F -3.3 °F 84% 30.52 in 10.0 mi WNW 5.8 mph - N/A   Clear
6:55 AM 0.3 °F -11.2 °F -3.6 °F 83% 30.51 in 10.0 mi WNW 5.8 mph - N/A   Clear
7:15 AM -0.8 °F -10.8 °F -4.4 °F 85% 30.51 in 10.0 mi West 4.6 mph - N/A   Clear
7:55 AM 1.6 °F -9.7 °F -2.7 °F 82% 30.52 in 10.0 mi West 5.8 mph - N/A   Clear
8:15 AM 3.2 °F -7.8 °F -1.8 °F 80% 30.53 in 10.0 mi West 5.8 mph - N/A   Clear
8:35 AM 5.2 °F -3.8 °F -0.4 °F 78% 30.53 in 10.0 mi West 4.6 mph - N/A   Clear
8:55 AM 6.3 °F -4.1 °F -0.0 °F 75% 30.53 in 10.0 mi WNW 5.8 mph - N/A   Clear
9:15 AM 7.7 °F -0.9 °F 1.0 °F 74% 30.53 in 10.0 mi WNW 4.6 mph - N/A   Clear
9:35 AM 8.6 °F -3.7 °F 0.7 °F 70% 30.52 in 10.0 mi WNW 8.1 mph - N/A   Clear
9:55 AM 9.5 °F -0.3 °F 1.0 °F 69% 30.52 in 10.0 mi WNW 5.8 mph - N/A   Clear
10:15 AM 10.2 °F 2.0 °F 0.7 °F 65% 30.52 in 10.0 mi WNW 4.6 mph - N/A   Clear
10:55 AM 11.7 °F 2.3 °F -0.0 °F 59% 30.52 in 10.0 mi WNW 5.8 mph - N/A   Clear
11:35 AM 12.4 °F 0.9 °F 1.2 °F 61% 30.51 in 10.0 mi West 8.1 mph - N/A   Clear
11:55 AM 12.9 °F 2.6 °F 1.8 °F 61% 30.49 in 10.0 mi WNW 6.9 mph - N/A   Clear
12:15 PM 13.3 °F 3.0 °F 1.9 °F 61% 30.48 in 10.0 mi West 6.9 mph - N/A   Clear
12:35 PM 13.5 °F 7.5 °F 1.6 °F 59% 30.47 in 10.0 mi West 3.5 mph - N/A   Clear
12:55 PM 14.4 °F - 1.2 °F 56% 30.46 in 10.0 mi Calm Calm - N/A   Clear
1:35 PM 14.9 °F 4.0 °F 1.8 °F 56% 30.46 in 10.0 mi SSW 8.1 mph - N/A   Clear
1:55 PM 15.4 °F 3.0 °F 1.4 °F 54% 30.44 in 10.0 mi South 10.4 mph - N/A   Clear
2:15 PM 15.6 °F 4.9 °F 1.4 °F 54% 30.44 in 10.0 mi SW 8.1 mph - N/A   Clear
2:35 PM 15.8 °F 4.2 °F 1.4 °F 53% 30.43 in 10.0 mi WSW 9.2 mph - N/A   Clear
2:55 PM 15.3 °F 5.4 °F -0.4 °F 50% 30.42 in 10.0 mi SW 6.9 mph - N/A   Clear
3:15 PM 15.3 °F 4.4 °F 1.2 °F 54% 30.42 in 10.0 mi SSW 8.1 mph - N/A   Clear
3:35 PM 14.9 °F 4.0 °F 1.2 °F 55% 30.41 in 10.0 mi South 8.1 mph - N/A   Clear
3:55 PM 14.0 °F 3.9 °F 0.3 °F 55% 30.41 in 10.0 mi SSW 6.9 mph - N/A   Clear
4:15 PM 13.1 °F 2.8 °F 0.9 °F 58% 30.41 in 10.0 mi SSW 6.9 mph - N/A   Clear
4:35 PM 11.8 °F 2.5 °F 0.7 °F 61% 30.40 in 10.0 mi SSW 5.8 mph - N/A   Clear
4:55 PM 10.8 °F 1.2 °F 0.3 °F 63% 30.39 in 10.0 mi SSW 5.8 mph - N/A   Clear
5:15 PM 10.2 °F -0.6 °F 1.0 °F 66% 30.37 in 10.0 mi South 6.9 mph - N/A   Clear
5:35 PM 11.7 °F 1.1 °F 1.9 °F 65% 30.37 in 10.0 mi South 6.9 mph - N/A   Clear
5:55 PM 11.3 °F 1.9 °F 2.1 °F 67% 30.37 in 10.0 mi SSW 5.8 mph - N/A   Clear
6:15 PM 11.3 °F 0.7 °F 2.3 °F 67% 30.35 in 10.0 mi South 6.9 mph - N/A   Clear
6:35 PM 11.1 °F 0.4 °F 1.9 °F 67% 30.34 in 10.0 mi South 6.9 mph - N/A   Clear
6:55 PM 10.8 °F 1.2 °F 1.6 °F 67% 30.35 in 10.0 mi South 5.8 mph - N/A   Clear
7:15 PM 10.9 °F 0.2 °F 2.3 °F 68% 30.34 in 10.0 mi South 6.9 mph - N/A   Clear
7:35 PM 11.1 °F -1.6 °F 2.5 °F 68% 30.32 in 10.0 mi SSE 9.2 mph - N/A   Clear
7:55 PM 11.1 °F -1.6 °F 2.7 °F 69% 30.30 in 10.0 mi SSE 9.2 mph - N/A   Clear
8:15 PM 11.3 °F -1.3 °F 3.2 °F 70% 30.30 in 10.0 mi SSE 9.2 mph - N/A   Clear
8:55 PM 11.7 °F -1.7 °F 3.6 °F 70% 30.29 in 10.0 mi South 10.4 mph - N/A   Clear
9:15 PM 12.0 °F -0.4 °F 3.6 °F 69% 30.29 in 10.0 mi South 9.2 mph - N/A   Clear
9:35 PM 11.7 °F 1.1 °F 3.7 °F 71% 30.28 in 10.0 mi South 6.9 mph - N/A   Clear
9:55 PM 11.3 °F -0.4 °F 4.8 °F 75% 30.28 in 10.0 mi SSE 8.1 mph - N/A   Clear
10:15 PM 11.7 °F 0.0 °F 4.1 °F 72% 30.27 in 10.0 mi SSE 8.1 mph - N/A   Clear
10:35 PM 12.2 °F 0.7 °F 4.5 °F 71% 30.28 in 10.0 mi South 8.1 mph - N/A   Clear
10:55 PM 12.2 °F 1.7 °F 4.6 °F 72% 30.28 in 10.0 mi SSE 6.9 mph - N/A   Scattered Clouds
11:15 PM 12.6 °F 0.2 °F 5.0 °F 72% 30.27 in 10.0 mi South 9.2 mph - N/A   Scattered Clouds
11:35 PM 13.1 °F -1.4 °F 4.6 °F 69% 30.26 in 10.0 mi South 12.7 mph - N/A   Scattered Clouds
11:55 PM 13.5 °F -2.1 °F 5.0 °F 69% 30.24 in 10.0 mi South 15.0 mph 20.7 mph N/A   Clear